{"data":{"norad_id":56481,"intl_designator":"2023-064AK","name":"STARLINK-6222","alt_names":[],"object_type":"PAYLOAD","status":"ACTIVE","operator":null,"country":"US","launch_date":"2023-05-10","launch_site_code":"AFWTR","launch_vehicle":null,"mission":null,"orbit_class":"UNKNOWN","rcs_meters":null,"size_class":null,"mass_kg":null,"dimensions":null,"purposes":["comms"],"wikipedia_slug":null,"has_3d_model":false,"image_url":null,"decayed_at":null,"tle_current":{"epoch":"2026-05-25T03:24:03.972960Z","epoch_age_seconds":66398,"freshness":"FRESH","line1":"1 56481U 23064AK  26145.14171265 -.00001214  00000+0 -93978-4 0  9993","line2":"2 56481  69.9982 291.5855 0003146 267.3805  92.6994 14.98324192167195","mean_motion":14.98324192,"eccentricity":0.0003146,"inclination_deg":69.9982,"raan_deg":291.5855,"arg_perigee_deg":267.3805,"mean_anomaly_deg":92.6994,"bstar":-9.3978e-5,"rev_number":16719,"period_min":96.1073716682,"perigee_km":569.88731542937,"apogee_km":574.2603880973,"semimajor_km":6950.2108517633,"source":"CELESTRAK","updated_at":"2026-05-25T13:38:18.073388Z"}}}